Powrót do katalogu

STARLINK-38262

AktywnyŁącznośćSSO
NORAD 100391·PAYLOAD·🇺🇸 United States

Wystrzelony Aug 19, 2026 z Vandenberg Space Force Base

Loading…

Następne Przeloty (najbliższe 24 godziny)

TLE

ŚwieżeSource: Space-Track

Epoka: Sep 14, 2026, 20:40 UTC

1 A0391U 26190W   26257.86171622  .00224805  00000-0  14666-2 0  9992
2 A0391  97.2828 111.8734 0002125  87.3725 272.7784 15.75222544  5456

Śledź STARLINK-38262 w czasie rzeczywistym z AllMySat

Download on the App Store